Regional Weather Roundup
Issued by NWS

Home | Current Version | Previous Version | Text Only | Print | Product List | Glossary Off
Versions: 1 2 3 4 5 6 7 8 9 10 11 12 13 14 15 16 17 18 19 20 21 22 23 24 25 26 27 28 29 30 31 32 33 34 35 36 37 38 39 40 41 42 43 44 45 46 47 48 49 50

744
ASUS43 KBIS 250010
RWRND
NORTH DAKOTA REGIONAL WEATHER ROUNDUP
NATIONAL WEATHER SERVICE EASTERN NORTH DAKOTA/GRAND FORKS ND
700 PM CDT SAT JUN 24 2017

  NOTE: "FAIR" INDICATES FEW OR NO CLOUDS BELOW 12,000 FEET WITH NO
  SIGNIFICANT WEATHER AND/OR OBSTRUCTIONS TO VISIBILITY.

NDZ001>003-009>011-017-250100-
...NORTHWEST NORTH DAKOTA...

CITY           SKY/WX    TMP DP  RH WIND       PRES   REMARKS
WILLISTON      FAIR      69  32  25 N17G23    30.28S
6HR MIN TEMP:  63; 6HR MAX TEMP:  71;

MINOT          PTSUNNY   59  39  47 NW16      30.24S
MINOT AFB      FAIR      61  39  44 N12       30.23S
6HR MIN TEMP:  56; 6HR MAX TEMP:  61;

$$

NDZ018>021-031>035-040>046-250100-
...SOUTHWEST NORTH DAKOTA...

CITY           SKY/WX    TMP DP  RH WIND       PRES   REMARKS
BISMARCK       PTSUNNY   64  39  39 N15       30.24R
DICKINSON      FAIR      64  28  25 N21G29    30.27R
GARRISON         N/A     61  37  41 N22G30    30.24S
HETTINGER      FAIR      66  29  24 N17       30.27S
$$

NDZ004>008-012>016-024-026-027-054-250100-
...NORTHEAST NORTH DAKOTA...

CITY           SKY/WX    TMP DP  RH WIND       PRES   REMARKS
GRAND FORKS    LGT RAIN  51  50  96 NW17G25   30.13R FOG
GRAND FORKS AF LGT RAIN  51  49  95 N16G25    30.15R
DEVILS LAKE    FAIR      56  41  57 N14       30.19S
$$

NDZ022-023-025-028>030-036>039-047>053-250100-
...SOUTHEAST NORTH DAKOTA...

CITY           SKY/WX    TMP DP  RH WIND       PRES   REMARKS
JAMESTOWN      CLOUDY    57  45  64 NW28G36   30.18R
FARGO          CLOUDY    59  47  64 N21       30.11R
WAHPETON       CLOUDY    57  45  62 NW17G25   30.11S
$$




USA.gov is the U.S. government's official web portal to all federal, state and local government web resources and services.